Showing default

AISAT, 40054

Orbit data source: Space-Track

AISAT, 40054 is a payload satellite owned by DLR (DE) in SSO that was launched on Mon, 30 Jun 2014 UTC via a PSLV launch vehicle from the Sirharikota (SRI). Payload-class satellites include a variety of spacecraft equipped with specific instruments for various scientific and technological missions. These include communications satellites like Starlink; space stations such as the ISS; scientific satellites like the Hubble; Earth observation satellites from companies like Planet Labs, Umbra, and HawkEye 360; GPS; miniature CubeSats for education and research; and military/defense satellites.

Loading next visibility...
Identifier
40054, 2014-034B
Orbit
SSO
Last TLE update
12 hours ago
Origin
Manufacturer
DLR-ISS
Mission
Non-operational Civil Communications
Bus & Motor
CLAVIS, Unknown motor
Mass
10 kg wet, 10 kg dry
Launch date (UTC)
2014-06-30 (11 years ago)
Launch vehicle
PSLV
Launch site
Sirharikota (SRI)
Object type
Payload
Rocket body
Debris
Shape & HBR
Box + 1 Truss, 4 m
Radar Cross Section
0.040 m², Medium (>0.1 m² and < 1m²)

Expand to show TLE details & history

TLE from 12 hours ago
0 AISAT
1 40054U 14034B   25183.64746276  .00005105  00000-0  41299-3 0  9995
2 40054  98.2877  67.5208 0010077 297.9254  62.0947 15.00226042594656
Epoch: 2025-07-02T15:32Z
TLE epoch observation values (Epoch: 2025-07-02T15:32:20.782Z)
Latitude
-0.00003°
Longitude
-86.49135°
Altitude
565.965 km
Speed
7.58 km/s
True Right ascension
04h 30m 04s
True Declination
0° 00' 00"
Sunlit
Object was in daylight at epoch
Visualization orbit readout
Latitude
26.20579°
Longitude
98.12487°
Altitude
575.034 km
Speed
7.573 km/s
Apparent Right ascension
20h 03m 12s
Apparent Declination
-20° 39' 24"
Sunlit
Object is in full shadow
Visualization observer readout
Local Sidereal Time
15:10:48
Azimuth
116.435° SE
Elevation
-1.016°
Doppler factor
1
Orbital elements
Apogee altitude
570.225 km
Perigee altitude
556.236 km
Semi-major axis
6,941.368 km
Eccentricity
0.00101
Inclination
98.2877°
RAAN
67.5208°
Arg. of periapsis
297.9254°
True anomaly
Unknown
Mean anomaly
62.0947°
Eccentric anomaly
Unknown
Mean motion
3.75297 °/min
Orbital period
95.92 mins
BSTAR
0.00041299
Loading maneuver chart data...
Loading SW <> Apogee altitude chart data...
Loading historical data...
Loading historical data...
Loading historical data...
Loading historical data...
Loading historical data...
Loading historical data...
Loading historical data...
Other satellites on launch #34 in the year 2014 (2014-06-30 UTC)

AISAT Visibility forecast

Observer location: undefined°, undefined°

Span
Click to sort rows by Start time (UTC) header in descending order
Start Az.
Max El. time (UTC)
Max El. Az.
Max El.
End time (UTC)
End Az.
7 mins2025-07-03 04:54:37.851Z23.759° NE2025-07-03 04:57:37.851Z70.323° E37.947°2025-07-03 05:01:37.851Z178.212° S
5 mins2025-07-03 15:42:37.851Z114.251° SE2025-07-03 15:44:37.851Z58.69° ENE28.531°2025-07-03 15:47:37.851Z7.838° NNE
|